Weather History for KSDB - March, 2012

Change the Weather History Date:

Friday, March 30, 2012

  Actual Average Record
Temperature  
Mean Temperature 56 °F 48 °F  
Max Temperature 69 °F 56 °F 83 °F (2015)
Min Temperature 43 °F 40 °F 21 °F (1967)
Degree Days  
Heating Degree Days 9 17  
Month to date heating degree days 565 553  
Since 1 July heating degree days 3123 3312  
Cooling Degree Days 0 0  
Month to date cooling degree days 0 0  
Year to date cooling degree days 0 0  
Growing Degree Days 4 (Base 50)    
Moisture  
Dew Point 38 °F    
Average Humidity 63    
Maximum Humidity 96    
Minimum Humidity 29    
Precipitation  
Precipitation 0.00 in 0.04 in 1.39 in (1978)
Month to date precipitation 1.85 1.69  
Year to date precipitation 2.65 7.34  
Since 1 July precipitation 5.15  
Sea Level Pressure  
Sea Level Pressure 29.97 in    
Wind  
Wind Speed 14 mph (West)    
Max Wind Speed 38 mph    
Max Gust Speed 47 mph    
Visibility 10 miles    
Events      
T = Trace of Precipitation, MM = Missing Value Source: NWS Daily Summary

Daily Weather History Graph

Daily Weather History Graph

Search for Another Location

Airport or City:

Trip Planner

Search our weather history database for the weather conditions in past years. The results will help you decide how hot, cold, wet, or windy it might be!

Date:

Astronomy

Mar. 30, 2012 Rise Set
Actual Time 6:43 AM PDT 7:14 PM PDT
Civil Twilight 6:18 AM PDT 7:40 PM PDT
Nautical Twilight 5:48 AM PDT 8:10 PM PDT
Astronomical Twilight 5:18 AM PDT 8:40 PM PDT
Moon 12:05 PM PDT (3/30) 1:43 AM PDT (3/30)
Length of Visible Light 13h 21m
Length of Day
12h 31m
Waxing Crescent, 50% of the Moon is Illuminated
Mar 30
Waxing Crescent
Mar 30
First Quarter
Apr 6
Full
Apr 13
Last Quarter
Apr 21
New

Hourly Weather History & Observations

Time (PDT) Temp. Windchill Dew Point Humidity Pressure Visibility Wind Dir Wind Speed Gust Speed Precip Events Conditions
12:48 AM 46.9 °F - 35.1 °F 63% 30.01 in 10.0 mi NNW 21.9 mph 33.4 mph N/A   Clear
1:48 AM 46.0 °F 36.5 °F 37.0 °F 71% 29.99 in 10.0 mi NNW 31.1 mph 39.1 mph N/A   Clear
2:48 AM 45.0 °F 36.0 °F 39.0 °F 80% 29.98 in 10.0 mi NNW 25.3 mph 41.4 mph N/A   Clear
3:48 AM 43.0 °F 33.1 °F 39.9 °F 89% 29.99 in 10.0 mi NNW 26.5 mph 40.3 mph N/A   Clear
4:48 AM 43.0 °F 32.5 °F 41.0 °F 93% 29.97 in 6.0 mi NNW 29.9 mph 38.0 mph N/A   Clear
5:48 AM 44.1 °F 35.2 °F 39.9 °F 85% 29.98 in 10.0 mi NNW 23.0 mph 34.5 mph N/A   Clear
6:48 AM 46.0 °F 38.5 °F 33.1 °F 61% 29.98 in 10.0 mi NNW 19.6 mph 28.8 mph N/A   Clear
7:48 AM 48.9 °F - 28.0 °F 44% 30.00 in 10.0 mi NNW 20.7 mph - N/A   Clear
8:48 AM 53.1 °F - 30.0 °F 41% 29.99 in 10.0 mi NNW 16.1 mph - N/A   Clear
9:48 AM 57.0 °F - 34.0 °F 42% 29.98 in 10.0 mi North 11.5 mph - N/A   Clear
10:48 AM 61.0 °F - 34.0 °F 36% 29.98 in 10.0 mi Variable 3.5 mph - N/A   Clear
11:42 AM 62.6 °F - 35.6 °F 37% 30.07 in 10.0 mi Calm Calm - N/A   Partly Cloudy
11:48 AM 63.0 °F - 36.0 °F 37% 29.97 in 10.0 mi Calm Calm - N/A   Clear
12:48 PM 66.0 °F - 34.0 °F 30% 29.95 in 10.0 mi NNW 8.1 mph - N/A   Clear
1:48 PM 66.0 °F - 39.0 °F 37% 29.94 in 10.0 mi South 9.2 mph 16.1 mph N/A   Clear
2:48 PM 64.0 °F - 41.0 °F 43% 29.94 in 10.0 mi South 15.0 mph 20.7 mph N/A   Clear
3:48 PM 63.0 °F - 39.9 °F 43% 29.93 in 10.0 mi South 12.7 mph - N/A   Clear
4:48 PM 62.1 °F - 37.9 °F 41% 29.93 in 10.0 mi South 11.5 mph 17.3 mph N/A   Clear
5:48 PM 59.0 °F - 41.0 °F 51% 29.94 in 10.0 mi SW 6.9 mph - N/A   Clear
6:48 PM 55.0 °F - 39.9 °F 57% 29.94 in 10.0 mi SSW 11.5 mph - N/A   Clear
7:48 PM 52.0 °F - 42.1 °F 69% 29.94 in 10.0 mi South 12.7 mph - N/A   Clear
8:48 PM 51.1 °F - 39.9 °F 66% 29.94 in 10.0 mi SSW 8.1 mph - N/A   Clear
9:48 PM 50.0 °F - 39.9 °F 68% 29.95 in 10.0 mi SW 5.8 mph - N/A   Clear
10:48 PM 48.9 °F - 42.1 °F 77% 29.94 in 10.0 mi SSW 8.1 mph - N/A   Clear
11:48 PM 48.0 °F - 41.0 °F 77% 29.94 in 10.0 mi SSW 5.8 mph - N/A   Clear